Weather History for KGUS - April, 2014

Change the Weather History Date:

Monday, April 28, 2014

  Actual Average Record
Temperature  
Mean Temperature 49 °F -  
Max Temperature 54 °F 65 °F 77 °F (2004)
Min Temperature 44 °F 46 °F 38 °F (2008)
Degree Days  
Heating Degree Days 16    
Moisture  
Dew Point 47 °F    
Average Humidity 92    
Maximum Humidity 100    
Minimum Humidity 61    
Precipitation  
Precipitation 0.22 in - - ()
Sea Level Pressure  
Sea Level Pressure 29.70 in    
Wind  
Wind Speed 19 mph (ENE)    
Max Wind Speed 26 mph    
Max Gust Speed 34 mph    
Visibility 8 miles    
Events Rain    
Averages and records for this station are not official NWS values.
T = Trace of Precipitation, MM = Missing Value Source: NWS Daily Summary

Daily Weather History Graph

Daily Weather History Graph

Search for Another Location

Airport or City:

Trip Planner

Search our weather history database for the weather conditions in past years. The results will help you decide how hot, cold, wet, or windy it might be!

Date:

Astronomy

Apr. 28, 2014 Rise Set
Actual Time 6:47 AM EDT 8:37 PM EDT
Civil Twilight 6:17 AM EDT 9:07 PM EDT
Nautical Twilight 5:42 AM EDT 9:42 PM EDT
Astronomical Twilight 5:03 AM EDT 10:21 PM EDT
Moon 6:25 AM EDT 8:14 PM EDT
Length of Visible Light 14h 49m
Length of Day
13h 50m
Waning Crescent, 0% of the Moon is Illuminated
Apr 28
Waning Crescent
Apr 29
New
May 6
First Quarter
May 14
Full
May 21
Last Quarter

Hourly Weather History & Observations

Time (EDT) Temp. Windchill Dew Point Humidity Pressure Visibility Wind Dir Wind Speed Gust Speed Precip Events Conditions
12:58 AM 48.6 °F - 35.6 °F 61% 29.91 in 10.0 mi East 19.6 mph 25.3 mph N/A   Overcast
1:58 AM 48.0 °F - 36.1 °F 63% 29.89 in 10.0 mi ENE 21.9 mph 29.9 mph N/A   Overcast
2:01 AM 48.2 °F - 37.4 °F 66% 29.88 in 10.0 mi East 20.7 mph 29.9 mph N/A Rain Light Rain
2:21 AM 46.4 °F 39.2 °F 37.4 °F 71% 29.88 in 10.0 mi ENE 18.4 mph 25.3 mph N/A   Overcast
2:58 AM 47.7 °F - 35.8 °F 63% 29.84 in 10.0 mi ENE 23.0 mph 28.8 mph 0.00 in   Overcast
3:58 AM 48.0 °F - 35.8 °F 63% 29.81 in 10.0 mi East 19.6 mph 26.5 mph N/A   Overcast
4:58 AM 48.9 °F - 36.5 °F 62% 29.78 in 10.0 mi East 18.4 mph 25.3 mph N/A   Overcast
5:58 AM 48.2 °F - 37.4 °F 66% 29.78 in 10.0 mi East 13.8 mph - N/A   Overcast
6:10 AM 50.0 °F - 37.4 °F 62% 29.76 in 10.0 mi ENE 20.7 mph - N/A Rain Light Rain
6:15 AM 48.2 °F - 39.2 °F 71% 29.75 in 10.0 mi ENE 17.3 mph 27.6 mph N/A Rain Light Rain
6:58 AM 47.3 °F - 42.3 °F 83% 29.76 in 10.0 mi East 17.3 mph 27.6 mph 0.00 in Rain Light Rain
7:06 AM 46.4 °F 39.2 °F 42.8 °F 87% 29.76 in 8.0 mi East 18.4 mph 27.6 mph N/A Rain Light Rain
7:58 AM 45.1 °F 37.6 °F 45.1 °F 100% 29.76 in 7.0 mi ENE 18.4 mph - 0.08 in Rain Light Rain
8:18 AM 44.6 °F 36.9 °F 44.6 °F 100% 29.76 in 10.0 mi ENE 18.4 mph 26.5 mph N/A Rain Light Rain
8:58 AM 45.0 °F 37.9 °F 45.0 °F 100% 29.76 in 6.0 mi ENE 16.1 mph - 0.04 in Rain Light Rain
9:38 AM 44.6 °F 37.2 °F 44.6 °F 100% 29.76 in 10.0 mi ENE 17.3 mph - N/A Rain Light Rain
9:58 AM 45.1 °F 38.1 °F 45.1 °F 100% 29.77 in 9.0 mi ENE 16.1 mph 23.0 mph 0.04 in Rain Light Rain
10:12 AM 44.6 °F 36.6 °F 44.6 °F 100% 29.74 in 10.0 mi ENE 19.6 mph - N/A   Overcast
10:31 AM 46.4 °F 37.9 °F 46.4 °F 100% 29.67 in 10.0 mi ENE 25.3 mph 33.4 mph N/A   Overcast
10:42 AM 44.6 °F 35.3 °F 44.6 °F 100% 29.64 in 10.0 mi ENE 26.5 mph 34.5 mph N/A   Overcast
10:58 AM 45.7 °F 36.9 °F 45.7 °F 100% 29.66 in 10.0 mi ENE 25.3 mph 32.2 mph 0.00 in   Overcast
11:03 AM 46.4 °F 37.9 °F 46.4 °F 100% 29.65 in 10.0 mi ENE 25.3 mph 34.5 mph N/A   Overcast
11:58 AM 47.7 °F - 47.7 °F 100% 29.71 in 10.0 mi East 23.0 mph 31.1 mph N/A   Overcast
12:58 PM 49.1 °F - 49.1 °F 100% 29.71 in 10.0 mi ENE 20.7 mph 27.6 mph N/A   Overcast
1:58 PM 50.9 °F - 50.9 °F 100% 29.73 in 10.0 mi East 20.7 mph 26.5 mph N/A   Overcast
2:58 PM 51.4 °F - 51.4 °F 100% 29.74 in 10.0 mi East 17.3 mph - N/A   Overcast
3:58 PM 54.3 °F - 54.3 °F 100% 29.70 in 10.0 mi ENE 21.9 mph 28.8 mph N/A   Overcast
4:58 PM 54.3 °F - 54.3 °F 100% 29.66 in 10.0 mi ENE 20.7 mph 26.5 mph N/A   Overcast
5:58 PM 54.0 °F - 54.0 °F 100% 29.65 in 7.0 mi ENE 23.0 mph 26.5 mph N/A   Overcast
6:58 PM 54.3 °F - 54.3 °F 100% 29.62 in 7.0 mi ENE 18.4 mph - N/A   Overcast
7:58 PM 53.8 °F - 53.8 °F 100% 29.62 in 7.0 mi ENE 15.0 mph - N/A   Overcast
8:58 PM 52.7 °F - 52.7 °F 100% 29.60 in 6.0 mi ENE 17.3 mph - N/A   Overcast
9:38 PM 51.8 °F - 51.8 °F 100% 29.60 in 5.0 mi ENE 16.1 mph - N/A   Overcast
9:58 PM 52.3 °F - 52.3 °F 100% 29.63 in 5.0 mi East 17.3 mph 25.3 mph N/A   Overcast
10:03 PM 51.8 °F - 51.8 °F 100% 29.60 in 5.0 mi ENE 19.6 mph 25.3 mph N/A   Overcast
10:18 PM 51.8 °F - 51.8 °F 100% 29.61 in 5.0 mi East 18.4 mph 24.2 mph N/A   Overcast
10:55 PM 51.8 °F - 51.8 °F 100% 29.62 in 4.0 mi East 17.3 mph - N/A Rain Light Rain
10:58 PM 52.3 °F - 52.3 °F 100% 29.64 in 4.0 mi East 16.1 mph 24.2 mph 0.00 in Rain Light Rain
11:03 PM 51.8 °F - 51.8 °F 100% 29.61 in 3.0 mi East 20.7 mph 25.3 mph N/A Rain Light Rain
11:23 PM 51.8 °F - 51.8 °F 100% 29.62 in 4.0 mi East 15.0 mph 21.9 mph N/A Rain Light Rain
11:28 PM 51.8 °F - 51.8 °F 100% 29.62 in 4.0 mi ENE 17.3 mph 21.9 mph N/A Rain Light Rain
11:33 PM 51.8 °F - 51.8 °F 100% 29.61 in 4.0 mi East 17.3 mph 23.0 mph N/A Rain Light Rain
11:43 PM 51.8 °F - 51.8 °F 100% 29.60 in 5.0 mi East 12.7 mph 23.0 mph N/A Rain Light Rain
11:48 PM 51.8 °F - 51.8 °F 100% 29.60 in 5.0 mi East 13.8 mph - N/A Rain Light Rain
11:56 PM 53.6 °F - 53.6 °F 100% 29.60 in 6.0 mi East 12.7 mph - N/A   Mostly Cloudy
11:58 PM 52.7 °F - 52.7 °F 100% 29.61 in 6.0 mi East 12.7 mph - 0.06 in   Mostly Cloudy